Inquirer Daily News

Weather

Get conditions and forecasts for any City, State, ZIP code or Country:  
Trenton, NJ
on Tuesday, February 5, 2013

Tuesday
Previous Day Next Day
Daily Summary
 ActualAverageRecord
Temperature
Mean Temperature °F 32°F  
Max Temperature 33°F 40°F 68°F (1991)
Min Temperature 27°F 25°F -6°F (1918)
Degree Days
Heating Degree Days 35 33  
Month to date heating degree days 192 165  
Since 1 July heating degree days 2900 3111  
Cooling Degree Days 0 0  
Month to date cooling degree days 0 0  
Year to date cooling degree days 0 0  
Moisture
Dew Point 26°F   
Average Humidity 84    
Maximum Humidity 92    
Minimum Humidity 75    
Precipitation
Precipitation T in 0.06 in 1.52 in (1920)
Month to date precipitation 0.03 0.35  
Year to date precipitation 2.85 3.51  
Wind
Wind Speed 3 mph   
Max Wind Speed 7 mph   
Max Gust Speed 9 mph   
Visibility 5 miles   
Events Snow   

Key: T is trace of precipitation, MM is missing value
Source: NWS Daily Summary
Time(EST)TemperatureDew PointHumidity Pressure Visibility Wind DirectionWind SpeedGust SpeedPrecipitationEvents Conditions
12:53 AM 28.0°F 21.0°F 75% 29.92 in 10.0 miles SSW 4.6 mph - N/A   Overcast
1:53 AM 28.0°F 21.9°F 78% 29.91 in 10.0 miles South 4.6 mph - N/A   Overcast
2:53 AM 28.0°F 23.0°F 81% 29.90 in 9.0 miles South 3.5 mph - N/A   Overcast
3:53 AM 28.0°F 24.1°F 85% 29.87 in 6.0 miles East 3.5 mph - 0.00 in Snow Light Snow
4:53 AM 28.0°F 23.0°F 81% 29.89 in 9.0 miles ENE 3.5 mph - 0.00 in   Overcast
5:53 AM 28.0°F 23.0°F 81% 29.90 in 6.0 miles ENE 3.5 mph - 0.00 in Snow Light Snow
6:53 AM 27.0°F 23.0°F 85% 29.90 in 7.0 miles NE 5.8 mph - 0.00 in   Overcast
7:53 AM 27.0°F 24.1°F 89% 29.92 in 6.0 miles NNE 3.5 mph - N/A   Overcast
8:53 AM 28.0°F 24.1°F 85% 29.93 in 6.0 miles ENE 3.5 mph - N/A   Overcast
9:53 AM 28.9°F 25.0°F 85% 29.94 in 6.0 miles NE 3.5 mph - N/A   Overcast
10:53 AM 30.0°F 26.1°F 85% 29.94 in 6.0 miles East 3.5 mph - N/A   Overcast
11:53 AM 30.9°F 25.0°F 79% 29.93 in 7.0 miles NE 4.6 mph - N/A   Overcast
12:53 PM 30.9°F 26.1°F 82% 29.91 in 6.0 miles East 3.5 mph - N/A   Haze
1:04 PM 32.0°F 26.6°F 80% 29.91 in 6.0 miles East 3.5 mph - N/A   Haze
1:53 PM 32.0°F 26.1°F 79% 29.89 in 5.0 miles East 6.9 mph - N/A   Haze
2:53 PM 32.0°F 26.1°F 79% 29.88 in 5.0 miles ENE 4.6 mph - N/A   Haze
3:23 PM 33.8°F 26.6°F 75% 29.90 in 5.0 miles East 3.5 mph - N/A   Haze
3:53 PM 32.0°F 26.1°F 79% 29.88 in 4.0 miles East 4.6 mph - N/A   Haze
4:02 PM 32.0°F 26.6°F 80% 29.89 in 4.0 miles ESE 4.6 mph - N/A   Haze
4:11 PM 32.0°F 26.6°F 80% 29.89 in 4.0 miles ESE 5.8 mph - N/A   Haze
4:53 PM 32.0°F 26.1°F 79% 29.88 in 3.0 miles East 4.6 mph - N/A   Haze
5:12 PM 32.0°F 26.6°F 80% 29.88 in 2.5 miles ESE 4.6 mph - 0.00 in Snow Light Snow
5:28 PM 32.0°F 26.6°F 80% 29.88 in 4.0 miles ESE 4.6 mph - 0.00 in Snow Light Snow
5:53 PM 32.0°F 27.0°F 82% 29.88 in 4.0 miles Calm Calm - 0.00 in   Haze
6:53 PM 32.0°F 28.0°F 85% 29.89 in 2.5 miles Calm Calm - 0.00 in Snow Light Snow
7:05 PM 30.2°F 28.4°F 93% 29.90 in 1.5 miles Calm Calm - 0.00 in Snow Light Snow
7:23 PM 30.2°F 28.4°F 93% 29.89 in 2.5 miles Calm Calm - 0.00 in Snow Light Snow
7:43 PM 30.2°F 28.4°F 93% 29.90 in 3.0 miles Calm Calm - 0.00 in   Overcast
7:53 PM 30.9°F 28.9°F 92% 29.89 in 3.0 miles Calm Calm - 0.00 in   Overcast
8:53 PM 32.0°F 28.9°F 88% 29.89 in 3.0 miles Calm Calm - N/A   Overcast
9:09 PM 30.2°F 28.4°F 93% 29.90 in 3.0 miles Calm Calm - N/A   Overcast
9:16 PM 30.2°F 28.4°F 93% 29.90 in 3.0 miles East 3.5 mph - N/A   Overcast
9:18 PM 30.2°F 28.4°F 93% 29.90 in 3.0 miles Calm Calm - N/A   Overcast
9:35 PM 30.2°F 28.4°F 93% 29.91 in 3.0 miles NNE 3.5 mph - N/A   Overcast
9:43 PM 30.2°F 28.4°F 93% 29.91 in 3.0 miles Calm Calm - N/A   Overcast
9:53 PM 30.9°F 28.9°F 92% 29.90 in 3.0 miles Calm Calm - N/A   Overcast
10:53 PM 30.9°F 28.0°F 89% 29.90 in 3.0 miles North 4.6 mph - N/A   Overcast
11:53 PM 30.9°F 28.0°F 89% 29.90 in 3.0 miles Calm Calm - N/A   Overcast
Astronomy
Sunrise:07:04 AM (EST) Moon Rise:02:43 AM (EST)2/5
Sunset:05:23 PM (EST) Moon Set:12:38 PM (EST)2/5
Moon Phase
Feb. 05 Feb. 10 Feb. 17 Feb. 25 Mar. 04

Copyright © 2014 The Weather Underground, Inc.